Overview Statistics Trail Chart Weather Telemetry Raw packets
 

This is the latest recevied weather packets stored in our database for station/object W5ITZ. If no packets are shown the sender has not sent any weather packets the latest 10 day(s).

<< 107 108 109 110 111 112 113 >>
Time Temp. Humidity Pressure Rain* Wind** Luminosity Snow
1787412015 30.56° C 76% 1017.8 hPa 0 mm - 614 W/m² -
1787411712 30° C 77% 1017.6 hPa 0 mm - 605 W/m² -
1787411444 29.44° C 79% 1017.8 hPa 0 mm - 512 W/m² -
1787411103 29.44° C 79% 1017.8 hPa 0 mm - 467 W/m² -
1787410798 29.44° C 81% 1017.8 hPa 0 mm - 523 W/m² -
1787410494 29.44° C 81% 1017.8 hPa 0 mm - 291 W/m² -
1787410189 28.89° C 85% 1017.9 hPa 0 mm - 396 W/m² -
1787409886 28.89° C 88% 1017.8 hPa 0 mm - 452 W/m² -
1787409581 28.33° C 89% 1017.8 hPa 0 mm - 505 W/m² -
1787409277 28.33° C 91% 1017.7 hPa 0 mm - 482 W/m² -
1787408972 27.78° C 92% 1017.6 hPa 0 mm - 434 W/m² -
1787408667 27.78° C 94% 1017.6 hPa 0 mm - 142 W/m² -
1787408362 27.78° C 94% 1017.5 hPa 0 mm - 326 W/m² -
1787408058 27.22° C 96% 1017.7 hPa 0 mm - 266 W/m² -
1787407753 27.22° C 96% 1017.5 hPa 0 mm - 239 W/m² -
1787407448 27.22° C 96% 1017.7 hPa 0 mm - 250 W/m² -
1787407143 27.22° C 97% 1017.6 hPa 0 mm - 113 W/m² -
1787406839 27.22° C 97% 1017.8 hPa 0 mm - 197 W/m² -
1787406539 26.67° C 98% 1017.7 hPa 0 mm - 128 W/m² -
1787406236 26.67° C 98% 1017.5 hPa 0 mm - 116 W/m² -
1787405931 26.67° C 98% 1017.6 hPa 0 mm - 89 W/m² -
1787405628 26.67° C 98% 1017.7 hPa 0 mm - 92 W/m² -
1787405328 26.67° C 98% 1017.7 hPa 0 mm - 120 W/m² -
1787405024 26.11° C 98% 1017.4 hPa 0 mm - 68 W/m² -
1787404719 25.56° C 98% 1017.6 hPa 0 mm - 64 W/m² -

* Rain latest hour (hover to see other rain measurements)
** Current wind speed in m/s (hover to see current wind gust speed)